Weather observations for the past three days for
St. Joseph, Rosecrans Memorial Airport
| Date | Time (cdt) | Wind (kph) | Vis. (km) | Weather | Sky Cond. | Temperature (ºC) | Relative Humidity | Wind Chill (°C) | Heat Index (°C) | Pressure | Precipitation (cm) | ||||||
|---|---|---|---|---|---|---|---|---|---|---|---|---|---|---|---|---|---|
| Air | Dwpt | 6 hour | altimeter (cm) | sea level (mb) | 1 hr | 3 hr | 6 hr | ||||||||||
| Max. | Min. | ||||||||||||||||
| 31 | 05:53 | S 15 | 16.09 | Fair | CLR | 25.6 | 16.7 | 58% | 26 | 75.95 | 1011.4 | ||||||
| 31 | 04:53 | S 15 | 16.09 | Fair | CLR | 25.6 | 16.7 | 58% | 26 | 75.92 | 1011.0 | ||||||
| 31 | 03:53 | S 13 | 16.09 | Fair | CLR | 26.1 | 16.7 | 56% | 27 | 75.9 | 1010.7 | ||||||
| 31 | 02:53 | S 11 | 16.09 | Fair | CLR | 27.2 | 16.7 | 53% | 28 | 75.87 | 1010.4 | ||||||
| 31 | 01:53 | S 15 | 16.09 | Fair | CLR | 28.3 | 16.7 | 49% | 29 | 75.87 | 1010.3 | ||||||
| 31 | 00:53 | S 13 | 16.09 | Fair | CLR | 28.3 | 17.2 | 33.9 | 27.8 | 51% | 29 | 75.87 | 1010.2 | ||||
| 30 | 23:53 | S 13 | 16.09 | Fair | CLR | 28.3 | 17.2 | 51% | 29 | 75.84 | 1010.1 | ||||||
| 30 | 22:53 | S 19 | 16.09 | Fair | CLR | 30 | 16.7 | 45% | 30 | 75.82 | 1009.8 | ||||||
| 30 | 21:53 | S 15 | 16.09 | Fair | CLR | 30 | 17.2 | 46% | 30 | 75.79 | 1009.5 | ||||||
| 30 | 20:53 | S 13 | 16.09 | Fair | CLR | 30 | 18.9 | 51% | 31 | 75.77 | 1009.1 | ||||||
| 30 | 19:53 | S 15 | 16.09 | Fair | CLR | 31.1 | 19.4 | 50% | 33 | 75.72 | 1008.4 | ||||||
| 30 | 18:53 | S 17 | 16.09 | Fair | CLR | 34.4 | 20.6 | 36.7 | 33.9 | 44% | 37 | 75.72 | 1008.3 | ||||
| 30 | 17:53 | S 24 | 16.09 | Fair | CLR | 35.6 | 19.4 | 39% | 38 | 75.69 | 1008.2 | ||||||
| 30 | 16:53 | S 26 G 35 | 16.09 | Fair | CLR | 36.1 | 20 | 39% | 39 | 75.72 | 1008.4 | ||||||
| 30 | 15:53 | S 31 G 46 | 16.09 | Fair | CLR | 36.1 | 20 | 39% | 39 | 75.74 | 1008.6 | ||||||
| 30 | 14:53 | S 24 G 41 | 16.09 | Fair | CLR | 35.6 | 20 | 40% | 38 | 75.79 | 1009.1 | ||||||
| 30 | 13:53 | S 19 G 37 | 16.09 | Fair | CLR | 35 | 20 | 41% | 38 | 75.82 | 1009.8 | ||||||
| 30 | 12:53 | S 24 G 37 | 16.09 | Fair | CLR | 33.9 | 19.4 | 33.9 | 25 | 42% | 36 | 75.84 | 1010.2 | ||||
| 30 | 11:53 | S 24 G 41 | 16.09 | Fair | CLR | 31.7 | 18.9 | 47% | 33 | 75.9 | 1010.8 | ||||||
| 30 | 10:53 | S 26 G 43 | 16.09 | Fair | CLR | 31.1 | 18.3 | 46% | 32 | 75.9 | 1010.7 | ||||||
| 30 | 09:53 | S 24 G 39 | 16.09 | Partly Cloudy | SCT120 | 28.9 | 17.8 | 51% | 30 | 75.87 | 1010.6 | ||||||
| 30 | 08:53 | S 22 G 39 | 16.09 | Fair | CLR | 26.7 | 16.7 | 54% | 27 | 75.87 | 1010.6 | ||||||
| 30 | 07:53 | S 20 | 16.09 | Fair | CLR | 26.1 | 16.1 | 54% | 27 | 75.9 | 1011.0 | ||||||
| 30 | 06:53 | S 19 | 16.09 | Fair | CLR | 25 | 15.6 | 27.2 | 25 | 56% | 26 | 75.92 | 1010.9 | ||||
| 30 | 05:53 | S 11 | 16.09 | Fair | CLR | 25.6 | 15.6 | 54% | 26 | 75.92 | 1011.2 | ||||||
| 30 | 04:53 | S 15 | 16.09 | Fair | CLR | 26.1 | 15.6 | 52% | 27 | 75.92 | 1011.0 | ||||||
| 30 | 03:53 | S 20 | 16.09 | Fair | CLR | 27.2 | 16.1 | 51% | 28 | 75.92 | 1010.9 | ||||||
| 30 | 02:53 | S 13 | 16.09 | Fair | CLR | 26.1 | 17.2 | 58% | 27 | 75.9 | 1010.8 | ||||||
| 30 | 01:53 | S 13 | 16.09 | Fair | CLR | 25.6 | 17.8 | 62% | 27 | 75.9 | 1010.8 | ||||||
| 30 | 00:53 | S 13 | 16.09 | Fair | CLR | 26.7 | 17.8 | 32.8 | 26.1 | 58% | 28 | 75.9 | 1010.9 | ||||
| 29 | 23:53 | S 13 | 16.09 | Fair | CLR | 27.2 | 17.8 | 57% | 28 | 75.9 | 1010.9 | ||||||
| 29 | 22:53 | S 19 | 16.09 | Fair | CLR | 28.9 | 17.8 | 51% | 30 | 75.92 | 1011.0 | ||||||
| 29 | 21:53 | S 13 | 16.09 | Fair | CLR | 27.2 | 18.9 | 61% | 28 | 75.9 | 1011.0 | ||||||
| 29 | 20:53 | S 11 | 16.09 | Fair | CLR | 27.8 | 19.4 | 60% | 29 | 75.87 | 1010.7 | ||||||
| 29 | 19:53 | S 15 | 16.09 | Fair | CLR | 30 | 19.4 | 53% | 32 | 75.82 | 1010.0 | ||||||
| 29 | 18:53 | S 17 | 16.09 | Fair | CLR | 32.8 | 19.4 | 35 | 32.2 | 45% | 35 | 75.82 | 1010.0 | ||||
| 29 | 17:53 | S 22 | 16.09 | Fair | CLR | 33.9 | 18.9 | 41% | 36 | 75.84 | 1010.3 | ||||||
| 29 | 16:53 | S 26 G 41 | 16.09 | Fair | CLR | 33.3 | 18.9 | 43% | 35 | 75.87 | 1010.4 | ||||||
| 29 | 15:53 | S 24 G 41 | 16.09 | Fair | CLR | 34.4 | 19.4 | 41% | 36 | 75.92 | 1011.0 | ||||||
| 29 | 14:53 | S 26 G 41 | 16.09 | Fair | CLR | 33.9 | 18.9 | 41% | 36 | 75.97 | 1011.9 | ||||||
| 29 | 13:53 | S 28 G 46 | 16.09 | Fair | CLR | 33.9 | 18.3 | 40% | 35 | 76.02 | 1012.5 | ||||||
| 29 | 12:53 | S 31 G 44 | 16.09 | Fair | CLR | 32.2 | 17.8 | 32.2 | 19.4 | 42% | 33 | 76.07 | 1013.3 | ||||
| 29 | 11:53 | S 28 G 39 | 16.09 | Fair | CLR | 30 | 18.3 | 49% | 31 | 76.15 | 1014.2 | ||||||
| 29 | 10:53 | S 20 G 33 | 16.09 | Fair | CLR | 27.2 | 17.2 | 54% | 28 | 76.2 | 1015.0 | ||||||
| 29 | 09:53 | S 28 G 35 | 16.09 | Fair | CLR | 25.6 | 16.7 | 58% | 26 | 76.23 | 1015.3 | ||||||
| 29 | 08:53 | S 17 | 16.09 | Fair | CLR | 23.3 | 16.1 | 64% | 76.25 | 1015.9 | |||||||
| 29 | 07:53 | S 11 | 16.09 | Fair | CLR | 21.1 | 15.6 | 71% | 76.28 | 1016.2 | |||||||
| 29 | 06:53 | S 9 | 16.09 | Fair | CLR | 19.4 | 15 | 22.8 | 19.4 | 76% | 76.25 | 1015.8 | |||||
| 29 | 05:53 | S 9 | 16.09 | Fair | CLR | 20 | 15 | 73% | 76.25 | 1015.7 | |||||||
| 29 | 04:53 | S 15 | 16.09 | Fair | CLR | 20.6 | 15 | 70% | 76.28 | 1016.0 | |||||||
| 29 | 03:53 | S 9 | 16.09 | Fair | CLR | 20.6 | 15.6 | 73% | 76.28 | 1016.2 | |||||||
| 29 | 02:53 | S 13 | 16.09 | Fair | CLR | 21.1 | 15.6 | 71% | 76.3 | 1016.5 | |||||||
| 29 | 01:53 | S 13 | 16.09 | Fair | CLR | 22.2 | 15.6 | 66% | 76.33 | 1016.7 | |||||||
| 29 | 00:53 | S 13 | 16.09 | Fair | CLR | 22.2 | 15.6 | 28.3 | 22.2 | 66% | 76.33 | 1016.8 | |||||
| 28 | 23:53 | SE 11 | 16.09 | Fair | CLR | 23.3 | 16.1 | 64% | 76.35 | 1017.0 | |||||||
| 28 | 22:53 | SE 15 | 16.09 | Fair | CLR | 23.3 | 16.7 | 67% | 76.33 | 1016.9 | |||||||
| 28 | 21:53 | SE 15 | 16.09 | Fair | CLR | 24.4 | 16.7 | 62% | 25 | 76.35 | 1017.0 | ||||||
| 28 | 20:53 | SE 13 | 16.09 | Fair | CLR | 24.4 | 17.2 | 64% | 25 | 76.33 | 1016.8 | ||||||
| 28 | 19:53 | SE 13 | 16.09 | Fair | CLR | 26.7 | 16.7 | 54% | 27 | 76.3 | 1016.6 | ||||||
| 28 | 18:53 | S 7 | 16.09 | Fair | CLR | 28.3 | 17.2 | 30 | 28.3 | 51% | 29 | 76.33 | 1017.0 | ||||
| 28 | 17:53 | S 15 | 16.09 | Fair | CLR | 29.4 | 16.1 | 45% | 30 | 76.35 | 1017.3 | ||||||
| 28 | 16:53 | SE 13 | 16.09 | Fair | CLR | 30 | 15 | 40% | 30 | 76.35 | 1017.3 | ||||||
| 28 | 15:53 | S 15 | 16.09 | Fair | CLR | 30 | 15.6 | 42% | 30 | 76.4 | 1018.0 | ||||||
| 28 | 14:53 | S 17 | 16.09 | Fair | CLR | 29.4 | 16.1 | 45% | 30 | 76.48 | 1018.8 | ||||||
| 28 | 13:53 | S 17 | 16.09 | Fair | CLR | 29.4 | 15.6 | 43% | 29 | 76.53 | 1019.5 | ||||||
| 28 | 12:53 | S 15 | 16.09 | Fair | CLR | 28.9 | 16.1 | 28.9 | 15.6 | 46% | 29 | 76.58 | 1020.2 | 0.05 | |||
| 28 | 11:53 | S 19 | 16.09 | Fair | CLR | 28.3 | 16.1 | 48% | 29 | 76.61 | 1020.6 | ||||||
| 28 | 10:53 | S 9 | 16.09 | Partly Cloudy | SCT100 | 26.7 | 17.8 | 58% | 28 | 76.63 | 1021.1 | ||||||
| 28 | 09:53 | S 9 | 16.09 | Fair | CLR | 24.4 | 17.8 | 67% | 25 | 76.61 | 1020.8 | 0.05 | |||||
| 28 | 08:53 | Calm | 0.00 | Partly Cloudy | FEW090 SCT120 | 20.6 | 18.3 | 87% | 76.66 | 1021.6 | 0.05 | ||||||
| 28 | 07:53 | Calm | 12.87 | Mostly Cloudy | SCT080 BKN100 | 18.3 | 16.7 | 90% | 76.63 | 1021.3 | |||||||
| 28 | 06:53 | N 6 | 4.83 | Fog/Mist | BKN100 BKN120 | 15.6 | 15.6 | 16.7 | 14.4 | 100% | 76.56 | 1019.9 | |||||
| Date | Time (cdt) | Wind (kph) | Vis. (km) | Weather | Sky Cond. | Air | Dwpt | Max. | Min. | Relative Humidity | Wind Chill (°C) | Heat Index (°C) | altimeter (cm) | sea level (mb) | 1 hr | 3 hr | 6 hr |
| 6 hour | |||||||||||||||||
| Temperature (ºC) | Pressure | Precipitation (cm) | |||||||||||||||